This is the latest recevied weather packets stored in our database for station/object K1KOF. If no packets are shown the sender has not sent any weather packets the latest 10 day(s).
| Time | Temp. | Humidity | Pressure | Rain* | Wind** | Luminosity | Snow |
|---|---|---|---|---|---|---|---|
| 1778246698 | 16.67° C | 83% | 1028.7 hPa | 0 mm | - | 246 W/m² | - |
| 1778246394 | 16.67° C | 83% | 1028.6 hPa | 0 mm | - | 177 W/m² | - |
| 1778246090 | 17.22° C | 84% | 1028.5 hPa | 0 mm | - | 155 W/m² | - |
| 1778245787 | 16.67° C | 83% | 1028.5 hPa | 0 mm | - | 179 W/m² | - |
| 1778245484 | 16.67° C | 85% | 1028.2 hPa | 0 mm | - | 174 W/m² | - |
| 1778245179 | 16.67° C | 86% | 1028.5 hPa | 0 mm | - | 139 W/m² | - |
| 1778244876 | 16.67° C | 90% | 1028.4 hPa | 0 mm | - | 142 W/m² | - |
| 1778244574 | 16.11° C | 95% | 1028.2 hPa | 0 mm | - | 212 W/m² | - |
| 1778244271 | 15.56° C | 98% | 1028.3 hPa | 0 mm | - | 105 W/m² | - |
| 1778243969 | 15° C | 99% | 1028 hPa | 0 mm | - | 164 W/m² | - |
| 1778243667 | 14.44° C | 99% | 1027.8 hPa | 0 mm | - | 66 W/m² | - |
| 1778243363 | 15° C | 99% | 1027.9 hPa | 0 mm | - | 56 W/m² | - |
| 1778243060 | 14.44° C | 99% | 1028.1 hPa | 0 mm | - | 46 W/m² | - |
| 1778242757 | 14.44° C | 99% | 1028.2 hPa | 0 mm | - | 46 W/m² | - |
| 1778242456 | 13.89° C | 99% | 1027.7 hPa | 0 mm | - | 49 W/m² | - |
| 1778242153 | 13.89° C | 99% | 1027.5 hPa | 0 mm | - | 45 W/m² | - |
| 1778241851 | 13.89° C | 99% | 1028 hPa | 0 mm | - | 35 W/m² | - |
| 1778241548 | 13.33° C | 99% | 1027.7 hPa | 0 mm | - | 49 W/m² | - |
| 1778241246 | 13.33° C | 99% | 1027.8 hPa | 0 mm | - | 53 W/m² | - |
| 1778240942 | 13.33° C | 99% | 1027.5 hPa | 0 mm | - | 39 W/m² | - |
| 1778240639 | 12.78° C | 99% | 1027.7 hPa | 0 mm | - | 34 W/m² | - |
| 1778240335 | 12.22° C | 99% | 1027.4 hPa | 0 mm | - | 28 W/m² | - |
| 1778240034 | 12.22° C | 99% | 1027.4 hPa | 0 mm | - | 28 W/m² | - |
| 1778239730 | 12.22° C | 99% | 1027.1 hPa | 0 mm | - | 29 W/m² | - |
| 1778239427 | 12.22° C | 99% | 1027.1 hPa | 0 mm | - | 28 W/m² | - |
* Rain latest hour (hover to see other rain measurements)
** Current wind speed in m/s (hover to see current wind gust speed)